| time (UTC) | temp F | wind direction | speed MPH | gust MPH | rain 1hr in | rain 24hr in | rain mn in | humidity % | barometer mb |
| 20260508120025 | 62 | 120 | 0.0 | 0.0 | 0.00 | 0.00 | 0.00 | 41 | 1010.0 |
| 20260508114523 | 62 | 96 | 0.0 | 0.0 | 0.00 | 0.00 | 0.00 | 40 | 1009.9 |
| 20260508113017 | 64 | 96 | 0.0 | 0.0 | 0.00 | 0.00 | 0.00 | 39 | 1009.8 |
| 20260508111516 | 64 | 96 | 0.0 | 0.0 | 0.00 | 0.00 | 0.00 | 38 | 1009.7 |
| 20260508110015 | 64 | 119 | 0.0 | 0.0 | 0.00 | 0.00 | 0.00 | 38 | 1009.5 |
| 20260508104513 | 64 | 119 | 0.0 | 2.0 | 0.00 | 0.00 | 0.00 | 38 | 1009.6 |
| 20260508103012 | 64 | 103 | 0.0 | 2.0 | 0.00 | 0.00 | 0.00 | 38 | 1009.6 |
| 20260508101522 | 65 | 94 | 0.0 | 3.0 | 0.00 | 0.00 | 0.00 | 37 | 1009.6 |
| 20260508100007 | 65 | 99 | 0.0 | 0.0 | 0.00 | 0.00 | 0.00 | 37 | 1009.5 |
| 20260508094506 | 65 | 123 | 0.0 | 2.0 | 0.00 | 0.00 | 0.00 | 36 | 1009.4 |
| 20260508093011 | 66 | 102 | 0.0 | 2.0 | 0.00 | 0.00 | 0.00 | 35 | 1009.4 |
| 20260508091501 | 66 | 101 | 0.0 | 3.0 | 0.00 | 0.00 | 0.00 | 34 | 1009.5 |
| 20260508090002 | 67 | 103 | 1.0 | 2.0 | 0.00 | 0.00 | 0.00 | 34 | 1009.5 |
| 20260508084559 | 66 | 105 | 0.0 | 0.0 | 0.00 | 0.00 | 0.00 | 35 | 1009.6 |
| 20260508083056 | 66 | 89 | 0.0 | 2.0 | 0.00 | 0.00 | 0.00 | 35 | 1009.7 |
| 20260508081610 | 65 | 86 | 0.0 | 0.0 | 0.00 | 0.00 | 0.00 | 36 | 1009.9 |
| 20260508080054 | 66 | 86 | 0.0 | 1.0 | 0.00 | 0.00 | 0.00 | 35 | 1009.9 |
| 20260508074551 | 67 | 100 | 0.0 | 1.0 | 0.00 | 0.00 | 0.00 | 35 | 1010.0 |
| 20260508073046 | 67 | 102 | 0.0 | 3.0 | 0.00 | 0.00 | 0.00 | 35 | 1010.1 |
| 20260508071545 | 68 | 108 | 0.0 | 0.0 | 0.00 | 0.00 | 0.00 | 34 | 1010.2 |
| 20260508070043 | 68 | 113 | 0.0 | 4.0 | 0.00 | 0.00 | 0.00 | 34 | 1010.2 |
| 20260508064541 | 70 | 89 | 0.0 | 0.0 | 0.00 | 0.00 | 0.00 | 30 | 1010.3 |
| 20260508063040 | 70 | 88 | 0.0 | 0.0 | 0.00 | 0.00 | 0.00 | 30 | 1010.4 |
| 20260508061511 | 71 | 87 | 0.0 | 0.0 | 0.00 | 0.00 | 0.00 | 29 | 1010.4 |
| 20260508060009 | 71 | 87 | 0.0 | 0.0 | 0.00 | 0.00 | 0.00 | 29 | 1010.6 |
| 20260508054508 | 71 | 109 | 0.0 | 2.0 | 0.00 | 0.00 | 0.00 | 30 | 1010.5 |
| 20260508053008 | 71 | 97 | 0.0 | 2.0 | 0.00 | 0.00 | 0.00 | 29 | 1010.5 |
| 20260508051506 | 72 | 100 | 1.0 | 3.0 | 0.00 | 0.00 | 0.00 | 28 | 1010.5 |
| 20260508050006 | 73 | 82 | 1.0 | 4.0 | 0.00 | 0.00 | 0.00 | 27 | 1010.4 |
| 20260508044503 | 73 | 246 | 0.0 | 4.0 | 0.00 | 0.00 | 0.00 | 26 | 1010.2 |
| 20260508043003 | 74 | 111 | 0.0 | 0.0 | 0.00 | 0.00 | 0.00 | 25 | 1010.0 |
| 20260508041502 | 74 | 47 | 0.0 | 0.0 | 0.00 | 0.00 | 0.00 | 25 | 1009.8 |
| 20260508040003 | 74 | 4 | 0.0 | 0.0 | 0.00 | 0.00 | 0.00 | 24 | 1009.6 |
| 20260508034605 | 74 | 4 | 0.0 | 0.0 | 0.00 | 0.00 | 0.00 | 24 | 1009.3 |
| 20260508033059 | 75 | 4 | 0.0 | 0.0 | 0.00 | 0.00 | 0.00 | 23 | 1008.9 |
| 20260508031603 | 77 | 16 | 0.0 | 0.0 | 0.00 | 0.00 | 0.00 | 22 | 1008.6 |
| 20260508030113 | 79 | 263 | 0.0 | 3.0 | 0.00 | 0.00 | 0.00 | 20 | 1008.3 |
| 20260508024605 | 79 | 253 | 1.0 | 5.0 | 0.00 | 0.00 | 0.00 | 20 | 1007.9 |
| 20260508023055 | 80 | 240 | 0.0 | 4.0 | 0.00 | 0.00 | 0.00 | 20 | 1007.7 |
| 20260508021613 | 83 | 315 | 2.0 | 10.0 | 0.00 | 0.00 | 0.00 | 14 | 1007.5 |
| 20260508020055 | 84 | 293 | 4.0 | 11.0 | 0.00 | 0.00 | 0.00 | 13 | 1007.0 |
| 20260508014529 | 85 | 304 | 10.0 | 18.0 | 0.00 | 0.00 | 0.00 | 12 | 1006.8 |
| 20260508013023 | 86 | 301 | 7.0 | 14.0 | 0.00 | 0.00 | 0.00 | 13 | 1006.7 |
| 20260508011518 | 87 | 298 | 7.0 | 15.0 | 0.00 | 0.00 | 0.00 | 13 | 1006.5 |
| 20260508010034 | 87 | 307 | 8.0 | 16.0 | 0.00 | 0.00 | 0.00 | 13 | 1006.4 |
| 20260508004522 | 88 | 319 | 9.0 | 17.0 | 0.00 | 0.00 | 0.00 | 13 | 1006.2 |
| 20260508003020 | 88 | 300 | 9.0 | 16.0 | 0.00 | 0.00 | 0.00 | 13 | 1006.0 |
| 20260508001521 | 88 | 271 | 4.0 | 13.0 | 0.00 | 0.00 | 0.00 | 14 | 1006.0 |
| 20260508000018 | 89 | 278 | 5.0 | 12.0 | 0.00 | 0.00 | 0.00 | 13 | 1006.0 |
| 20260507234510 | 88 | 338 | 0.0 | 13.0 | 0.00 | 0.00 | 0.00 | 15 | 1006.1 |
| 20260507233009 | 89 | 286 | 8.0 | 11.0 | 0.00 | 0.00 | 0.00 | 14 | 1006.1 |
| 20260507231505 | 88 | 306 | 3.0 | 14.0 | 0.00 | 0.00 | 0.00 | 14 | 1006.1 |
| 20260507230005 | 88 | 248 | 2.0 | 6.0 | 0.00 | 0.00 | 0.00 | 14 | 1006.3 |
| 20260507224503 | 89 | 313 | 10.0 | 16.0 | 0.00 | 0.00 | 0.00 | 14 | 1006.2 |
| 20260507223004 | 88 | 290 | 5.0 | 13.0 | 0.00 | 0.00 | 0.00 | 14 | 1006.5 |
| 20260507221557 | 90 | 118 | 0.0 | 5.0 | 0.00 | 0.00 | 0.00 | 12 | 1006.6 |
| 20260507220054 | 88 | 354 | 4.0 | 14.0 | 0.00 | 0.00 | 0.00 | 14 | 1006.9 |
| 20260507214554 | 88 | 301 | 0.0 | 13.0 | 0.00 | 0.00 | 0.00 | 14 | 1007.1 |
| 20260507213052 | 88 | 295 | 8.0 | 15.0 | 0.00 | 0.00 | 0.00 | 13 | 1007.3 |
| 20260507211551 | 88 | 281 | 3.0 | 8.0 | 0.00 | 0.00 | 0.00 | 14 | 1007.6 |
| 20260507210111 | 89 | 294 | 0.0 | 12.0 | 0.00 | 0.00 | 0.00 | 13 | 1007.8 |
| 20260507204542 | 88 | 137 | 0.0 | 8.0 | 0.00 | 0.00 | 0.00 | 13 | 1007.9 |
| 20260507203039 | 87 | 230 | 0.0 | 13.0 | 0.00 | 0.00 | 0.00 | 14 | 1008.1 |
| 20260507201537 | 86 | 288 | 4.0 | 10.0 | 0.00 | 0.00 | 0.00 | 15 | 1008.4 |
| 20260507200050 | 85 | 248 | 0.0 | 12.0 | 0.00 | 0.00 | 0.00 | 15 | 1008.6 |
| 20260507194534 | 86 | 294 | 4.0 | 13.0 | 0.00 | 0.00 | 0.00 | 15 | 1008.8 |
| 20260507193059 | 86 | 333 | 2.0 | 12.0 | 0.00 | 0.00 | 0.00 | 15 | 1008.9 |
| 20260507191605 | 86 | 314 | 0.0 | 5.0 | 0.00 | 0.00 | 0.00 | 15 | 1009.2 |
| 20260507190057 | 84 | 306 | 4.0 | 13.0 | 0.00 | 0.00 | 0.00 | 16 | 1009.4 |
| 20260507184553 | 84 | 292 | 3.0 | 8.0 | 0.00 | 0.00 | 0.00 | 17 | 1009.7 |
| 20260507183100 | 85 | 266 | 0.0 | 3.0 | 0.00 | 0.00 | 0.00 | 18 | 1009.9 |
| 20260507181547 | 85 | 93 | 1.0 | 5.0 | 0.00 | 0.00 | 0.00 | 16 | 1010.2 |
| 20260507180044 | 82 | 137 | 2.0 | 5.0 | 0.00 | 0.00 | 0.00 | 18 | 1010.5 |
| 20260507174514 | 80 | 276 | 0.0 | 1.0 | 0.00 | 0.00 | 0.00 | 21 | 1010.7 |
| 20260507173016 | 79 | 259 | 0.0 | 4.0 | 0.00 | 0.00 | 0.00 | 22 | 1010.9 |
| 20260507171502 | 78 | 249 | 0.0 | 3.0 | 0.00 | 0.00 | 0.00 | 24 | 1011.0 |
| 20260507170000 | 79 | 280 | 0.0 | 1.0 | 0.00 | 0.00 | 0.00 | 22 | 1011.2 |
| 20260507164606 | 78 | 256 | 0.0 | 0.0 | 0.00 | 0.00 | 0.00 | 25 | 1011.3 |
| 20260507163055 | 78 | 300 | 0.0 | 3.0 | 0.00 | 0.00 | 0.00 | 24 | 1011.4 |
| 20260507161608 | 77 | 236 | 0.0 | 3.0 | 0.00 | 0.00 | 0.00 | 25 | 1011.6 |
| 20260507160104 | 76 | 205 | 0.0 | 2.0 | 0.00 | 0.00 | 0.00 | 24 | 1011.8 |
| 20260507154547 | 74 | 245 | 0.0 | 1.0 | 0.00 | 0.00 | 0.00 | 30 | 1011.9 |
| 20260507153044 | 72 | 150 | 0.0 | 0.0 | 0.00 | 0.00 | 0.00 | 32 | 1012.0 |
| 20260507151542 | 71 | 150 | 0.0 | 0.0 | 0.00 | 0.00 | 0.00 | 32 | 1012.2 |
| 20260507150035 | 69 | 124 | 0.0 | 0.0 | 0.00 | 0.00 | 0.00 | 32 | 1012.3 |
| 20260507144544 | 68 | 131 | 0.0 | 0.0 | 0.00 | 0.00 | 0.00 | 36 | 1012.4 |
| 20260507143031 | 66 | 120 | 0.0 | 1.0 | 0.00 | 0.00 | 0.00 | 39 | 1012.4 |
| 20260507141527 | 64 | 137 | 0.0 | 0.0 | 0.00 | 0.00 | 0.00 | 40 | 1012.4 |
| 20260507140100 | 61 | 120 | 0.0 | 3.0 | 0.00 | 0.00 | 0.00 | 44 | 1012.3 |
| 20260507134602 | 61 | 137 | 0.0 | 0.0 | 0.00 | 0.00 | 0.00 | 44 | 1012.4 |
| 20260507133050 | 58 | 91 | 0.0 | 0.0 | 0.00 | 0.00 | 0.00 | 45 | 1012.3 |
| 20260507131550 | 56 | 129 | 0.0 | 2.0 | 0.00 | 0.00 | 0.00 | 46 | 1012.2 |
| 20260507130047 | 56 | 99 | 0.0 | 0.0 | 0.00 | 0.00 | 0.00 | 46 | 1012.0 |
| 20260507124547 | 56 | 99 | 0.0 | 0.0 | 0.00 | 0.00 | 0.00 | 44 | 1011.9 |
| 20260507123046 | 57 | 100 | 0.0 | 2.0 | 0.00 | 0.00 | 0.00 | 44 | 1011.8 |
| 20260507121544 | 57 | 94 | 0.0 | 2.0 | 0.00 | 0.00 | 0.00 | 45 | 1011.9 |